Regional Weather Roundup
Issued by NWS Wilmington, NC

Home | Current Version | Previous Version | Text Only | Print | Product List | Glossary On
Versions: 1 2 3 4 5 6 7 8 9 10 11 12 13 14 15 16 17 18 19 20 21 22 23 24 25 26 27 28 29 30 31 32 33 34 35 36 37 38 39 40 41 42 43 44 45
000
ASUS42 KILM 270010
RWRILM
RWRILM
REGIONAL HOURLY WEATHER ROUNDUP
NATIONAL WEATHER SERVICE WILMINGTON NC
700 PM EST FRI DEC 26 2014

NOTE: "FAIR" INDICATES FEW OR NO CLOUDS BELOW 12,000 FEET WITH NO
SIGNIFICANT WEATHER AND/OR OBSTRUCTIONS TO VISIBILITY.

...............WFO WILMINGTON COUNTY WARNING AREA...............

......COASTAL NC AND SC COUNTIES......

CITY           SKY/WX    TMP DP  RH WIND       PRES   REMARKS
WILMINGTON     CLEAR     46  43  89 CALM      30.31R
SOUTHPORT      CLEAR     46  44  91 CALM      30.31S
N MYRTLE BEACH CLEAR     45  43  93 CALM      30.31R
MYRTLE BEACH   CLEAR     46  43  87 NW6       30.33R

......INLAND NC AND SC COUNTIES.......

CITY           SKY/WX    TMP DP  RH WIND       PRES   REMARKS
LUMBERTON      CLEAR     45  41  86 CALM      30.31R
ELIZABETHTOWN  CLEAR     46  40  79 CALM      30.31R
WHITEVILLE     CLEAR     46  40  79 CALM      30.31R
FLORENCE       CLEAR     46  38  73 CALM      30.31R
DARLINGTON     CLEAR     45  37  76 CALM      30.32R

....................REST OF NORTH CAROLINA......................

.........EASTERN NC.........

CITY           SKY/WX    TMP DP  RH WIND       PRES   REMARKS
CAPE HATTERAS  CLEAR     42  39  89 W5        30.32R
JACKSONVILLE   CLEAR     43  37  81 CALM      30.32R
MOREHEAD CITY  CLEAR     44  40  85 CALM      30.31S
KENANSVILLE    CLEAR     40  38  92 CALM      30.32R
NEW BERN       CLEAR     45  39  79 CALM      30.31S
ELIZABETH CITY CLEAR     47  37  68 SW5       30.31R

.........CENTRAL NC.........

CITY           SKY/WX    TMP DP  RH WIND       PRES   REMARKS
RALEIGH DURHAM PTCLDY    45  35  68 CALM      30.31R
ROCKY MOUNT    CLEAR     40  37  89 CALM      30.31R
ROANOKE RAPIDS NOT AVBL
FAYETTEVILLE   CLEAR     45  38  76 SW3       30.30R
HOFFMAN        CLEAR     40  36  85 SE3       30.33R

.........WESTERN NC.........

CITY           SKY/WX    TMP DP  RH WIND       PRES   REMARKS
CHARLOTTE      PTCLDY    49  32  52 S5        30.30R
GREENSBORO     PTCLDY    46  32  58 CALM      30.28R
HICKORY        NOT AVBL
BOONE          NOT AVBL
ASHEVILLE      NOT AVBL

.....................REST OF SOUTH CAROLINA.....................

.........EASTERN SC.........

CITY           SKY/WX    TMP DP  RH WIND       PRES   REMARKS
CHARLESTON     CLEAR     53  47  79 CALM      30.31R
BEAUFORT MCAS  CLEAR     50  46  86 CALM      30.31R
HILTON HEAD    CLEAR     50  48  93 CALM      30.31R

.........CENTRAL SC.........

CITY           SKY/WX    TMP DP  RH WIND       PRES   REMARKS
COLUMBIA       CLEAR     44  39  82 CALM      30.31R
ORANGEBURG     CLEAR     47  41  80 CALM      30.31R
SUMTER SHAW    CLEAR     46  38  74 CALM      30.29R

.........WESTERN SC.........

CITY           SKY/WX    TMP DP  RH WIND       PRES   REMARKS
GREENVILLE     NOT AVBL
ROCK HILL      CLEAR     41  35  79 CALM      30.31R
ANDERSON       MOCLDY    47  37  68 CALM      30.30R
CLEMSON        NOT AVBL
GREENWOOD      PTCLDY    45  38  76 CALM      30.32R


...................COASTAL AND OFFSHORE REPORTS..................

................LOCAL PIERS AND NC RESERVE................


STATION/POSITION TIME  SKY/WX   TEMP    WIND        PRES    VSBY
                                AIR SEA DIR/SP/G
                 (UTC)          (F)     (DEG/KT/KT) (MB)    (MI)
JOHNY MRCER PIER 0000            53 56   70/  2/  2 1025.6S
NC RESRV MASNBRO 2300            50        CALM     1026.0S
OCEAN CREST PIER 0000            51 56   40/  5/  5 1025.4S
SPRINGMAID  PIER 0000            50 53  330/  4/  4 1026.2R


................COASTAL AND OFFSHORE BUOYS................


STATION/POSITION TIME  SKY/WX   TEMP    WIND        PRES    VSBY
                                AIR SEA DIR/SP/G
                 (UTC)          (F)     (DEG/KT/KT) (MB)    (MI)
DIMNDSHOAL 41025 0000            55                 1026.8R
WVE H/P(F/S)=  3/ 9

CAPE LOOKOUT     2300            56      20/  5/  5 1026.0R
ONSLOW BAY 41036 0000            57 61   20/  2/  4 1026.9R
WVE H/P(F/S)=  2/ 7 SWL H/P/D(F/S/D)=  2/160/ 7

5 WRITEBCH 41038 NOT AVBL
MASONBORO  41110 0000               54                N/A
WVE H/P(F/S)=  2/ 7 WND WVE H/P(F/S)=  2/ 7

WILM HARBR 41108 0000               57                N/A
WVE H/P(F/S)=  2/ 7 WND WVE H/P(F/S)=  2/ 7

27WRITEBCH 41037 2300            53 60   90/  4/  6 1027.5R
FRYING PAN 41013 0000            58 69   50/ 10/ 12 1026.5R
WVE H/P(F/S)=  2/ 7 WND WVE H/P(F/S)=  2/ 3 SWL H/P/D(F/S/D)=  2/150/ 7

SUNST NRSH 41024 2300            53      70/  4/  4   N/A
CAPRS NRSH 41029 2300            55     110/  8/ 10   N/A
EDISTO     41004 0000            62 72   40/ 12/ 12 1025.4R
WVE H/P(F/S)=  3/ 4 WND WVE H/P(F/S)=  2/ 4 SWL H/P/D(F/S/D)=  2/ 7



..........OFFSHORE BUOYS BEYOND 100 NM OFFSHORE...........
.....IN A TRIANGLE---HAT TO BERMUDA TO BAHAMAS TO HAT.....


STATION/POSITION TIME  SKY/WX   TEMP    WIND        PRES    VSBY
                                AIR SEA DIR/SP/G
                 (UTC)          (F)     (DEG/KT/KT) (MB)    (MI)
150E HAT   41001 NOT AVBL
W BERMUDA  41048 NOT AVBL
ATLANTIC S 41049 NOT AVBL
E BAHAMAS  41046 NOT AVBL
NE BAHAMAS 41047 NOT AVBL
120E CANVRL41010 0000            74 76   70/  6/  8 1023.4R
WVE H/P(F/S)=  3/ 7 WND WVE H/P(F/S)=  2/ 4 SWL H/P/D(F/S/D)=  2/ 90/ 7


END



USA.gov is the U.S. government's official web portal to all federal, state and local government web resources and services.